Vano — SBNM — position and weather

sailwx.info

Track history (hours):
 
Tides and Currents Weather Stations Pressure Air Temp Water Temp Dewpoint Dewpoint Depression Visibility Wind Speed Wind Dir Waves Ship Positions

Vano

Last reported at 2014-Jul-30 15:26 UTC. Time now 2014-Jul-30 19:14 UTC.
Position N 59°20' E 018°12'.

Length 38 m; draft 1.8 m.

Type: Passenger vessel. MMSI: 265520400.

Date/timePositionNaut miles runAvg speedWind from/ knotsBaromVisibWave heightAir tempDewpointWater temp
2014-Jul-30 15:26N 59°20' E 018°12'4 2.7
2014-Jul-30 14:05N 59°20' E 018°05'6 8.0
2014-Jul-30 13:21N 59°22' E 018°15'3 0.4
2014-Jul-30 07:15N 59°23' E 018°20'812.1
2014-Jul-30 06:33N 59°19' E 018°05'0 0.3
2014-Jul-30 05:25N 59°20' E 018°05'0 0.0
2014-Jul-30 04:33N 59°20' E 018°05'0 0.0
2014-Jul-30 03:31N 59°20' E 018°05'0 0.0
2014-Jul-30 02:33N 59°20' E 018°05'0 0.0
2014-Jul-30 01:26N 59°20' E 018°05'0 0.0
2014-Jul-30 00:28N 59°20' E 018°05'0 0.0
2014-Jul-29 23:29N 59°20' E 018°05'0 0.0
2014-Jul-29 21:06N 59°20' E 018°05'0 0.2
2014-Jul-29 20:33N 59°20' E 018°05'0 0.0
2014-Jul-29 14:33N 59°19' E 018°05'0 0.1
2014-Jul-29 12:05N 59°20' E 018°05'0 0.0
2014-Jul-29 11:28N 59°20' E 018°05'0 0.0
2014-Jul-29 08:18N 59°20' E 018°05'8 7.6
2014-Jul-29 07:19N 59°23' E 018°19'1 0.0
2014-Jul-28 14:18N 59°23' E 018°20'811.0
2014-Jul-28 13:32N 59°20' E 018°05'3 2.6
2014-Jul-28 12:32N 59°19' E 018°10'4 1.1
2014-Jul-28 08:27N 59°22' E 018°17'5 1.8
2014-Jul-28 05:32N 59°19' E 018°08'7 0.7
2014-Jul-27 20:07N 59°23' E 018°20'814.9
2014-Jul-27 19:33N 59°20' E 018°05'4 0.7
2014-Jul-27 13:23N 59°20' E 018°12'4 4.9
2014-Jul-27 12:33N 59°20' E 018°04'3 0.8
2014-Jul-27 08:23N 59°20' E 018°11'3 4.2
2014-Jul-27 07:34N 59°20' E 018°05'0 0.0
2014-Jul-27 06:32N 59°20' E 018°05'0 0.0
2014-Jul-27 05:34N 59°20' E 018°05'0 0.0
2014-Jul-27 04:33N 59°20' E 018°05'0 0.0
2014-Jul-27 03:34N 59°20' E 018°05'0 0.0
2014-Jul-27 02:33N 59°20' E 018°05'0 0.0
2014-Jul-27 01:34N 59°20' E 018°05'0 0.0
2014-Jul-27 00:34N 59°20' E 018°05'0 0.0
2014-Jul-26 23:33N 59°20' E 018°05'0 0.0
2014-Jul-26 22:34N 59°20' E 018°05'0 0.0
2014-Jul-26 21:33N 59°20' E 018°05'0 0.0
2014-Jul-26 20:34N 59°20' E 018°05'0 0.0
2014-Jul-26 19:33N 59°20' E 018°05'0 0.0
2014-Jul-26 18:34N 59°20' E 018°05'0 0.0
2014-Jul-26 17:34N 59°20' E 018°05'1 0.5
2014-Jul-26 16:33N 59°19' E 018°05'8 0.9
2014-Jul-26 07:15N 59°23' E 018°20'812.2
2014-Jul-26 06:34N 59°19' E 018°05'0 0.4
2014-Jul-26 05:32N 59°20' E 018°05'0 0.0
2014-Jul-26 04:31N 59°20' E 018°05'0 0.0
2014-Jul-26 03:31N 59°20' E 018°05'0 0.0
2014-Jul-26 02:32N 59°20' E 018°05'0 0.0
2014-Jul-26 01:27N 59°20' E 018°05'0 0.0
2014-Jul-26 00:25N 59°20' E 018°05'0 0.0
2014-Jul-25 23:30N 59°20' E 018°05'0 0.0
2014-Jul-25 20:33N 59°20' E 018°05'8 1.6
2014-Jul-25 15:19N 59°23' E 018°20'810.8
2014-Jul-25 14:33N 59°19' E 018°05'1 0.5
2014-Jul-25 13:33N 59°19' E 018°06'3 0.5
2014-Jul-25 06:25N 59°20' E 018°12'4 0.3
2014-Jul-24 18:24N 59°20' E 018°05'9 1.1
2014-Jul-24 10:24N 59°23' E 018°20'9 9.8
2014-Jul-24 09:32N 59°20' E 018°05'3 3.0
2014-Jul-24 08:33N 59°19' E 018°10'1 0.1
2014-Jul-23 15:29N 59°20' E 018°13'4 3.5
2014-Jul-23 14:18N 59°20' E 018°04'7 8.5
2014-Jul-23 13:28N 59°23' E 018°17'1 0.2
2014-Jul-23 07:19N 59°23' E 018°20'811.1
2014-Jul-23 06:33N 59°19' E 018°05'0 0.3
2014-Jul-23 05:30N 59°20' E 018°05'2 0.2
2014-Jul-22 20:33N 59°19' E 018°08'5 0.9
2014-Jul-22 15:08N 59°22' E 018°16'610.1
2014-Jul-22 14:32N 59°20' E 018°05'0 0.2
2014-Jul-22 13:12N 59°20' E 018°05'0 0.0
2014-Jul-22 12:12N 59°20' E 018°05'0 0.0
2014-Jul-22 10:27N 59°20' E 018°05'0 0.0
2014-Jul-22 09:33N 59°20' E 018°05'0 0.0
2014-Jul-22 08:32N 59°20' E 018°05'0 0.0
2014-Jul-21 13:32N 59°20' E 018°05'0 0.0
2014-Jul-21 06:32N 59°20' E 018°05'0 0.0
2014-Jul-20 19:32N 59°20' E 018°05'  
Track history (hours):
 
Tides and Currents Weather Stations Pressure Air Temp Water Temp Dewpoint Dewpoint Depression Visibility Wind Speed Wind Dir Waves Ship Positions

Vano

Last reported at 2014-Jul-30 15:26 UTC. Time now 2014-Jul-30 19:14 UTC.
Position N 59°20' E 018°12'.

Length 38 m; draft 1.8 m.

Type: Passenger vessel. MMSI: 265520400.

Date/timePositionNaut miles runAvg speedWind from/ knotsBaromVisibWave heightAir tempDewpointWater temp
2014-Jul-30 15:26N 59°20' E 018°12'4 2.7
2014-Jul-30 14:05N 59°20' E 018°05'6 8.0
2014-Jul-30 13:21N 59°22' E 018°15'3 0.4
2014-Jul-30 07:15N 59°23' E 018°20'812.1
2014-Jul-30 06:33N 59°19' E 018°05'0 0.3
2014-Jul-30 05:25N 59°20' E 018°05'0 0.0
2014-Jul-30 04:33N 59°20' E 018°05'0 0.0
2014-Jul-30 03:31N 59°20' E 018°05'0 0.0
2014-Jul-30 02:33N 59°20' E 018°05'0 0.0
2014-Jul-30 01:26N 59°20' E 018°05'0 0.0
2014-Jul-30 00:28N 59°20' E 018°05'0 0.0
2014-Jul-29 23:29N 59°20' E 018°05'0 0.0
2014-Jul-29 21:06N 59°20' E 018°05'0 0.2
2014-Jul-29 20:33N 59°20' E 018°05'0 0.0
2014-Jul-29 14:33N 59°19' E 018°05'0 0.1
2014-Jul-29 12:05N 59°20' E 018°05'0 0.0
2014-Jul-29 11:28N 59°20' E 018°05'0 0.0
2014-Jul-29 08:18N 59°20' E 018°05'8 7.6
2014-Jul-29 07:19N 59°23' E 018°19'1 0.0
2014-Jul-28 14:18N 59°23' E 018°20'811.0
2014-Jul-28 13:32N 59°20' E 018°05'3 2.6
2014-Jul-28 12:32N 59°19' E 018°10'4 1.1
2014-Jul-28 08:27N 59°22' E 018°17'5 1.8
2014-Jul-28 05:32N 59°19' E 018°08'7 0.7
2014-Jul-27 20:07N 59°23' E 018°20'814.9
2014-Jul-27 19:33N 59°20' E 018°05'4 0.7
2014-Jul-27 13:23N 59°20' E 018°12'4 4.9
2014-Jul-27 12:33N 59°20' E 018°04'3 0.8
2014-Jul-27 08:23N 59°20' E 018°11'3 4.2
2014-Jul-27 07:34N 59°20' E 018°05'0 0.0
2014-Jul-27 06:32N 59°20' E 018°05'0 0.0
2014-Jul-27 05:34N 59°20' E 018°05'0 0.0
2014-Jul-27 04:33N 59°20' E 018°05'0 0.0
2014-Jul-27 03:34N 59°20' E 018°05'0 0.0
2014-Jul-27 02:33N 59°20' E 018°05'0 0.0
2014-Jul-27 01:34N 59°20' E 018°05'0 0.0
2014-Jul-27 00:34N 59°20' E 018°05'0 0.0
2014-Jul-26 23:33N 59°20' E 018°05'0 0.0
2014-Jul-26 22:34N 59°20' E 018°05'0 0.0
2014-Jul-26 21:33N 59°20' E 018°05'0 0.0
2014-Jul-26 20:34N 59°20' E 018°05'0 0.0
2014-Jul-26 19:33N 59°20' E 018°05'0 0.0
2014-Jul-26 18:34N 59°20' E 018°05'0 0.0
2014-Jul-26 17:34N 59°20' E 018°05'1 0.5
2014-Jul-26 16:33N 59°19' E 018°05'8 0.9
2014-Jul-26 07:15N 59°23' E 018°20'812.2
2014-Jul-26 06:34N 59°19' E 018°05'0 0.4
2014-Jul-26 05:32N 59°20' E 018°05'0 0.0
2014-Jul-26 04:31N 59°20' E 018°05'0 0.0
2014-Jul-26 03:31N 59°20' E 018°05'0 0.0
2014-Jul-26 02:32N 59°20' E 018°05'0 0.0
2014-Jul-26 01:27N 59°20' E 018°05'0 0.0
2014-Jul-26 00:25N 59°20' E 018°05'0 0.0
2014-Jul-25 23:30N 59°20' E 018°05'0 0.0
2014-Jul-25 20:33N 59°20' E 018°05'8 1.6
2014-Jul-25 15:19N 59°23' E 018°20'810.8
2014-Jul-25 14:33N 59°19' E 018°05'1 0.5
2014-Jul-25 13:33N 59°19' E 018°06'3 0.5
2014-Jul-25 06:25N 59°20' E 018°12'4 0.3
2014-Jul-24 18:24N 59°20' E 018°05'9 1.1
2014-Jul-24 10:24N 59°23' E 018°20'9 9.8
2014-Jul-24 09:32N 59°20' E 018°05'3 3.0
2014-Jul-24 08:33N 59°19' E 018°10'1 0.1
2014-Jul-23 15:29N 59°20' E 018°13'4 3.5
2014-Jul-23 14:18N 59°20' E 018°04'7 8.5
2014-Jul-23 13:28N 59°23' E 018°17'1 0.2
2014-Jul-23 07:19N 59°23' E 018°20'811.1
2014-Jul-23 06:33N 59°19' E 018°05'0 0.3
2014-Jul-23 05:30N 59°20' E 018°05'2 0.2
2014-Jul-22 20:33N 59°19' E 018°08'5 0.9
2014-Jul-22 15:08N 59°22' E 018°16'610.1
2014-Jul-22 14:32N 59°20' E 018°05'0 0.2
2014-Jul-22 13:12N 59°20' E 018°05'0 0.0
2014-Jul-22 12:12N 59°20' E 018°05'0 0.0
2014-Jul-22 10:27N 59°20' E 018°05'0 0.0
2014-Jul-22 09:33N 59°20' E 018°05'0 0.0
2014-Jul-22 08:32N 59°20' E 018°05'0 0.0
2014-Jul-21 13:32N 59°20' E 018°05'0 0.0
2014-Jul-21 06:32N 59°20' E 018°05'0 0.0
2014-Jul-20 19:32N 59°20' E 018°05'  

Dump ship's entire track history